Regional Weather Roundup
Issued by NWS Wakefield, VA

Home | Current Version | Previous Version | Text Only | Print | Product List | Glossary Off
Versions: 1 2 3 4 5 6 7 8 9 10 11 12 13 14 15 16 17 18 19 20 21 22 23 24 25 26 27 28 29 30 31 32 33 34 35 36 37 38 39 40 41 42 43 44 45 46 47 48 49 50

000
ASUS41 KAKQ 031615
RWRAKQ

REGIONAL WEATHER ROUNDUP
NATIONAL WEATHER SERVICE WAKEFIELD VA
1200 PM EDT THU SEP 03 2015

Note: "fair" indicates few or no clouds below 12,000 feet with no
significant weather and/or obstructions to visibility. * = Denotes
station may not report precipitation (e.g., rain,snow,etc.),
thunder or fog.

VAZ042-051-052>054-056-031700-
NORTHERN VIRGINIA

CITY           SKY/WX    TMP DP  RH WIND       PRES   REMARKS
WASH NATIONAL  MOSUNNY   89  69  51 N5        29.92F
DULLES         SUNNY     88  68  51 N10       29.94F
FORT BELVOIR   SUNNY     89  69  50 NW7       29.92F
QUANTICO       PTSUNNY   86  70  58 E6        29.93F
FREDERICKSBRG* SUNNY     90  68  48 N7        29.92S
STAFFORD*      SUNNY     88  67  48 N3        29.97S
WARRENTON      SUNNY     91  72  53 NW8       29.94S HX  98
CULPEPER*      SUNNY     86  70  58 N7        29.95F
MANASSAS*      SUNNY     88  70  55 N8        29.93F
LEESBURG*      SUNNY     88  72  58 N6        29.95S
WINCHESTER     MOSUNNY   86  66  51 NW7       29.96F
FRONT ROYAL*   FAIR      84  70  61 CALM      29.96F
LURAY*         FAIR      82  66  57 CALM      29.98F
$$

VAZ048-049-060>072-079>083-031700-
CENTRAL AND SOUTH CENTRAL VIRGINIA

CITY           SKY/WX    TMP DP  RH WIND       PRES   REMARKS
RICHMOND       MOSUNNY   89  69  51 VRB5      29.94S
CHESTERFIELD*  FAIR      88  64  45 N7        29.96S
PETERSBURG*    SUNNY     87  74  64 N5        29.95S HX  95
HANOVER        SUNNY     86  69  56 NW3       29.96S
TAPPAHANNOCK*  SUNNY     88  64  45 CALM      29.94S
QUINTON*       FAIR      84  72  66 W5        29.93S
CHARLOTTSVILLE SUNNY     90  67  46 CALM      29.96F
GORDONSVILLE*  FAIR      89  69  51 CALM      29.95F
ORANGE*        SUNNY     90  68  48 W3        29.96F
LOUISA*        SUNNY     90  68  48 NW5       29.95S
BUMPASS*       FAIR      85  71  63 CALM      29.95S
FARMVILLE*     SUNNY     89  62  40 N5        29.96S
CREWE*         FAIR     N/A N/A N/A CALM      29.96S
FORT PICKETT*  FAIR      86  67  53 N7        29.97S
CHASE CITY*    FAIR      87  71  58 CALM      29.97F
CLARKSVILLE*   FAIR      82  70  65 N3        29.97S
SOUTH HILL*    SUNNY     84  70  63 N5        30.02S
LAWRENCEVILLE* FAIR      84  72  65 CALM      29.96F
EMPORIA*       SUNNY     82  70  65 CALM      29.96S
$$

VAZ088>098-031700-
SOUTHEAST VIRGINIA

CITY           SKY/WX    TMP DP  RH WIND       PRES   REMARKS
NORFOLK        SUNNY     87  67  51 N6        29.91F
VIRGINIA BEACH MOSUNNY   91  67  44 N6        29.91S
NORFOLK NAVAL  MOSUNNY   86  70  58 W3        29.93S
WEST POINT*    SUNNY     89  68  49 W3        29.93S
SALUDA*        FAIR      82  71  69 N5        29.92S
NEWPORT NEWS   SUNNY     88  68  51 N5        29.92S
LANGLEY AFB    MOSUNNY   86  70  58 N6        29.91S
FORT EUSTIS    SUNNY     84  69  61 W6        29.91S
WILLIAMSBURG*  SUNNY     91  72  52 CALM      29.93S HX  98
HR EXEC AP*      N/A     88  72  58 CALM      29.94S
FRANKLIN*      SUNNY     86  69  56 W3        29.93F
WAKEFIELD      SUNNY     88  68  51 W5        29.93S
$$

VAZ020-022-025-037-045-031700-
WEST CENTRAL AND SOUTHWEST VIRGINIA

CITY           SKY/WX    TMP DP  RH WIND       PRES   REMARKS
STAUNTON*      SUNNY     87  64  46 CALM      30.03F
WAYNESBORO*    FAIR      85  66  52 N5        30.03S
HOT SPRINGS VA SUNNY     74  64  71 N8        30.16R
LYNCHBURG      SUNNY     86  64  47 MISG      30.01S
DANVILLE       PTSUNNY   85  68  56 E3        29.99S
SOUTH BOSTON*  FAIR      84  67  56 CALM      29.98S
MARTINSVILLE   MOSUNNY   87  65  47 N8        30.03F
ROANOKE        SUNNY     86  65  49 E8        30.03F
BLACKSBURG     MOSUNNY   80  67  63 NW3       30.11F
DUBLIN*          N/A     82  67  60 N8        30.10F
MARION*        PTSUNNY   77  65  64 N5        30.15S
HILLSVILLE*    PTSUNNY   75  66  74 N7        30.12S
RICHLANDS*     PTSUNNY   76  30  18 N3        30.15S
WISE*          MOSUNNY   79  63  57 N8        30.17S
ABINGDON*      PTSUNNY   80  64  57 NE3       30.11F
$$

MDZ021>025-VAZ099-100-031700-
SOUTHERN MARYLAND AND THE DELMARVA PENINSULA

CITY           SKY/WX    TMP DP  RH WIND       PRES   REMARKS
PATUXENT RIVER SUNNY     87  69  54 CALM      29.91F
BAY BRIDGE APT   N/A     82  64  54 NW6       29.91F
LEONARDTOWN    NOT AVBL
DOVER          SUNNY     87  69  53 VRB5      29.88F
GEORGETOWN     SUNNY     89  65  44 VRB3      29.90F
EASTON         SUNNY     90  72  55 NW7       29.94F HX  96
CAMBRIDGE      SUNNY     86  66  51 CALM      29.89F
SALISBURY      SUNNY     89  68  49 NE7       29.89F
OCEAN CITY     SUNNY     87  66  49 E9        29.89F
WALLOPS ISLAND SUNNY     88  68  51 CALM      29.90F
ACCOMACK*      SUNNY     82  68  61 W7        29.91S
$$

NCZ012>017-030>032-031700-
NORTH CENTRAL AND EASTERN NORTH CAROLINA

CITY           SKY/WX    TMP DP  RH WIND       PRES   REMARKS
ROANOKE RAPIDS FAIR      82  70  65 NW5       29.95F
RALEIGH        PTSUNNY   82  69  64 CALM      29.99S
ELIZABETH CITY SUNNY     84  72  67 CALM      29.93F
AHOSKIE*       SUNNY     80  70  73 CALM      29.95F
EDENTON*       SUNNY     79  70  73 SW5       29.94F
CURRITUCK*     SUNNY     83  68  60 W5        29.94S
KILL DEVIL HLS SUNNY     85  70  61 W5        29.93S
MANTEO         SUNNY     80  70  70 N8        29.94S
CAPE HATTERAS  SUNNY     81  70  69 NW5       29.95R
TARBORO*       FAIR      82  71  69 CALM      29.96F
GOLDSBORO      MOSUNNY   82  72  69 N6        29.95S
WASHINGTON     MOSUNNY   77  71  79 N3        29.96S
GREENVILLE     SUNNY     81  72  74 CALM      29.98S
NEW BERN       SUNNY     84  71  65 W6        29.96S
WILMINGTON     MOSUNNY   86  74  67 VRB3      29.95F
$$

VAZ048-031700-
ELSEWHERE

CITY           SKY/WX    TMP DP  RH WIND       PRES   REMARKS
HARRISBURG PA  SUNNY     88  66  48 NW8       29.91F
BALTIMORE      MOSUNNY   88  68  51 CALM      29.90F
ANNAPOLIS      SUNNY     86  72  62 CALM      29.90F
ANDREWS AFB    SUNNY     88  67  49 VRB6      29.91F
PHILADELPHIA   MOSUNNY   89  65  44 NW13      29.89F
HENDERSON NC   PTSUNNY   84  63  48 N5        29.98S
GREENSBORO     CLOUDY    87  65  47 N8        30.00F
ROCKY MOUNT    MOSUNNY   83  70  64 N3        29.96F
$$

VAZ100-031700-
MARINE

STATION/POSITION TIME  TEMP    WIND        PRES    WAVE   SWELL
                       AIR SEA DIR/SP/G            HT/PER HT/PER
                 (UTC) (F)     (DEG/KT/KT) (MB)    (FT/S) (FT/S)
BRANDYWINE LGT   1500          330/  5/  7 1012.8F
CAPE MAY NJ      1500          320/  6/  8 1012.2F
LEWES DE         1500          340/  3/  4 1012.5S
15NM E FENWICK I 1550   78 79  360/  6/  8 1012.2F   2/13   2/13
OCEAN-CITY-INLET 1500           20/  3/  4 1011.8R
GOOSES REEF MD   1600   81 80  350/  6/  8 1014.0F
COVE POINT MD    1500          350/  8/  9 1013.8S
SOLOMONS ISLAND  1512      81                N/A
BISHOPS HEAD MD  1500          250/  5/  5 1012.2R
PINEY POINT MD   1505          310/  8/  9   N/A
POTOMAC MD       1600   79 81  300/  8/  8 1011.9F   1
CAMBRIDGE MD     1500          330/  2/  3 1012.0S
LEWISETTA VA     1500          340/  3/  5 1012.8R
RAPPAHANNOCK LGT 1500          340/  8/  9 1013.6S
STINGRAY PT      1500   78 80  290/  8/ 10 1013.5S   1
YORK RVR RNG VA  1500          350/  6/  7 1012.6S
JAMESTOWN VA     1600   81 82  280/  4/  6   N/A
DOMINION TERM VA 1500          310/  6/  6 1013.1S
KIPTOPEKE VA     1500          330/ 11/ 12   N/A
CHES BAY BRIDGE  1500          270/  5/  6 1012.7S
CAPE HENRY VA    1500          300/  8/  9   N/A
CHESAPEAKE LGHT  1500   80     310/  9/ 10 1013.8S
WILLOUBY STN VA  1500          230/  7/  7 1014.1S
CAPE HENRY BUOY  1528      80                N/A     2/ 9
1ST LANDING BUOY 1600      80              1012.8S   1
CAPE CHARLES BUO 1526      78                N/A     1/13   2/13
OFFSHORE WE BUOY 1541      79                N/A     2/13   2/13
64NM E OF VA BCH 1550   78 79  310/ 10/ 12 1012.8R   2/13   2/13
DUCK PIER NC     1500          300/  4/  6 1012.8F
44100 DUCK FRF   1524      79                N/A     1/13
44056 DUCK FRF   1541      80                N/A     2/13
OREGON INLET NC  1500          240/  5/  7 1013.5S
HATTERAS NC      1500          320/  3/  4 1013.8R
DIAMOND SHLS NC  1550   80 85  330/  4/  6 1013.9R   1/13   2/13
CAPE LOOKOUT NC  1600   80     100/  3/  3 1014.1R
$$


USA.gov is the U.S. government's official web portal to all federal, state and local government web resources and services.